DAMPETORP Weather Reports


Display with metric or nautical units.
time (UTC)temp
F
wind
direction
speed
MPH
gust
MPH
rain 1hr
in
rain 24hr
in
rain mn
in
humidity
%
barometer
mb
20260831231609 55 141 0.0 0.0 0.00 0.06 0.00 98 1004.5
20260831230058 55 141 0.0 0.0 0.00 0.06 0.00 98 1004.7
20260831224557 54 141 0.0 0.0 0.00 0.06 0.00 98 1004.7
20260831223056 54 141 0.0 0.0 0.00 0.06 0.00 98 1004.7
20260831221554 54 141 0.0 0.0 0.00 0.06 0.00 98 1004.7
20260831220052 54 141 0.0 0.0 0.00 0.06 0.06 98 1004.6
20260831214600 54 141 0.0 0.0 0.00 0.06 0.06 98 1004.6
20260831213057 53 141 0.0 0.0 0.00 0.06 0.06 98 1004.6
20260831211552 53 141 0.0 0.0 0.00 0.06 0.06 98 1004.6
20260831210050 53 141 0.0 0.0 0.00 0.07 0.06 97 1004.7
20260831204548 53 141 0.0 0.0 0.00 0.07 0.06 97 1004.6
20260831203046 53 141 0.0 0.0 0.00 0.07 0.06 97 1004.4
20260831201546 53 141 0.0 0.0 0.00 0.07 0.06 97 1004.4
20260831200044 54 141 0.0 0.0 0.00 0.07 0.06 97 1004.5
20260831194607 54 141 0.0 0.0 0.00 0.07 0.06 97 1004.5
20260831193042 54 141 0.0 0.0 0.00 0.07 0.06 96 1004.6
20260831191540 54 141 0.0 1.0 0.00 0.07 0.06 96 1004.6
20260831190044 55 141 0.0 0.0 0.00 0.09 0.06 95 1004.5
20260831184537 56 141 0.0 0.0 0.00 0.09 0.06 95 1004.5
20260831183035 56 141 0.0 0.0 0.00 0.09 0.06 95 1004.6
20260831181533 57 141 0.0 0.0 0.00 0.09 0.06 94 1004.6
20260831180031 57 141 0.0 0.0 0.00 0.18 0.06 93 1004.5
20260831174533 59 141 0.0 0.0 0.00 0.18 0.06 92 1004.5
20260831173031 60 141 0.0 0.0 0.00 0.18 0.06 89 1004.4
20260831171528 61 141 0.0 0.0 0.00 0.18 0.06 87 1004.3
20260831170029 63 141 0.0 1.0 0.00 0.31 0.06 84 1004.2
20260831164528 64 141 0.0 0.0 0.00 0.31 0.06 82 1004.2
20260831163031 65 141 0.0 2.0 0.00 0.31 0.06 81 1004.0
20260831161531 66 57 0.0 3.0 0.00 0.31 0.06 80 1004.0
20260831160026 65 340 1.0 4.0 0.00 0.31 0.06 81 1004.1
20260831154526 65 61 0.0 3.0 0.00 0.31 0.06 82 1004.1
20260831153025 65 358 0.0 5.0 0.00 0.31 0.06 82 1004.0
20260831151524 65 345 0.0 3.0 0.00 0.31 0.06 82 1004.0
20260831150024 64 28 1.0 4.0 0.00 0.31 0.06 83 1004.0
20260831144523 64 335 3.0 7.0 0.00 0.31 0.06 84 1004.2
20260831143023 64 12 1.0 7.0 0.00 0.31 0.06 83 1004.3
20260831141522 64 92 2.0 8.0 0.00 0.31 0.06 80 1004.2
20260831140022 65 341 1.0 6.0 0.00 0.31 0.06 80 1004.2
20260831134523 66 319 3.0 11.0 0.00 0.31 0.06 76 1004.2
20260831133021 67 321 3.0 8.0 0.00 0.31 0.06 74 1004.1
20260831131533 67 342 4.0 10.0 0.00 0.31 0.06 73 1004.1
20260831130018 66 335 1.0 10.0 0.00 0.31 0.06 74 1004.0
20260831124521 66 335 1.0 7.0 0.00 0.31 0.06 74 1004.0
20260831123015 66 338 4.0 8.0 0.00 0.31 0.06 74 1004.0
20260831121515 65 13 2.0 10.0 0.00 0.31 0.06 74 1004.1
20260831120011 64 14 3.0 7.0 0.00 0.31 0.06 77 1004.1
20260831114511 64 317 2.0 8.0 0.00 0.31 0.06 76 1004.2
20260831113008 62 63 1.0 5.0 0.00 0.31 0.06 80 1004.3
20260831111503 62 37 1.0 6.0 0.00 0.31 0.06 82 1004.2
20260831110001 61 9 1.0 8.0 0.00 0.31 0.06 82 1004.3
20260831104600 61 20 1.0 8.0 0.00 0.31 0.06 83 1004.2
20260831103058 61 58 1.0 7.0 0.00 0.31 0.06 85 1004.1
20260831101556 61 341 0.0 4.0 0.00 0.31 0.06 86 1003.9
20260831100055 61 322 2.0 6.0 0.00 0.31 0.06 86 1003.8
20260831094554 60 351 1.0 4.0 0.00 0.31 0.06 88 1003.8
20260831093054 60 65 0.0 4.0 0.00 0.31 0.06 89 1003.9
20260831091602 60 34 1.0 4.0 0.00 0.31 0.06 88 1004.0
20260831090052 59 60 1.0 8.0 0.00 0.31 0.06 89 1004.0
20260831084551 59 65 2.0 7.0 0.00 0.31 0.06 89 1003.9
20260831083050 59 354 2.0 7.0 0.00 0.31 0.06 91 1003.8
20260831081549 59 124 0.0 7.0 0.00 0.31 0.06 93 1003.8
20260831080048 59 69 2.0 9.0 0.00 0.31 0.06 94 1003.7
20260831074547 59 62 0.0 9.0 0.00 0.31 0.06 95 1003.7
20260831073046 58 335 1.0 9.0 0.00 0.31 0.06 95 1003.7
20260831071544 58 28 1.0 9.0 0.00 0.31 0.06 96 1003.6
20260831070044 57 39 1.0 9.0 0.00 0.31 0.06 96 1003.5
20260831064544 57 304 1.0 9.0 0.00 0.31 0.06 97 1003.6
20260831063041 57 326 0.0 9.0 0.00 0.31 0.06 97 1003.4
20260831061540 57 55 0.0 9.0 0.00 0.31 0.06 97 1003.2
20260831060039 57 348 2.0 9.0 0.00 0.31 0.06 97 1003.2
20260831054539 57 8 1.0 8.0 0.00 0.31 0.06 98 1003.0
20260831053039 57 330 1.0 8.0 0.00 0.31 0.06 98 1002.9
20260831051537 57 337 2.0 8.0 0.00 0.31 0.06 98 1002.9
20260831050034 57 356 0.0 8.0 0.00 0.31 0.06 98 1002.9
20260831044533 57 327 3.0 8.0 0.00 0.31 0.06 98 1002.8
20260831043031 57 342 1.0 8.0 0.00 0.31 0.06 98 1002.6
20260831041602 57 8 1.0 8.0 0.00 0.31 0.06 98 1002.4
20260831040029 57 81 0.0 8.0 0.00 0.31 0.06 98 1002.3
20260831034527 57 61 0.0 8.0 0.00 0.31 0.06 98 1002.3
20260831033029 57 40 1.0 8.0 0.00 0.31 0.06 98 1002.3
20260831031525 57 359 1.0 8.0 0.00 0.31 0.06 98 1002.2
20260831030025 57 84 1.0 8.0 0.00 0.31 0.06 98 1002.2
20260831024536 57 27 0.0 8.0 0.00 0.31 0.06 98 1002.1
20260831023023 57 60 0.0 8.0 0.01 0.31 0.06 98 1002.1
20260831021535 58 300 0.0 8.0 0.01 0.31 0.06 98 1002.1
20260831020021 58 39 1.0 8.0 0.01 0.31 0.06 98 1002.0
20260831014522 58 60 2.0 8.0 0.01 0.31 0.06 98 1002.0
20260831013018 59 23 0.0 8.0 0.00 0.31 0.05 98 1001.9
20260831011533 59 48 0.0 6.0 0.00 0.31 0.05 98 1001.8
20260831010015 58 46 0.0 6.0 0.00 0.31 0.05 98 1001.7
20260831004514 59 66 0.0 6.0 0.00 0.31 0.05 98 1001.6
20260831003013 59 45 0.0 6.0 0.00 0.31 0.05 98 1001.7
20260831001511 59 34 0.0 6.0 0.02 0.31 0.05 98 1001.6
20260831000010 59 131 0.0 6.0 0.05 0.31 0.05 98 1001.6
20260830234511 59 26 0.0 6.0 0.05 0.31 0.05 98 1001.4
20260830233016 60 45 1.0 6.0 0.05 0.31 0.05 98 1001.3